Hourly Weather Bolshoe Kislovo

Today, 5 August, Thursday

Time Temperature Precipitation Wind Pressure Humidity
00:00 +15°C° 0 mm 1 mps 742 mmHg 74%
01:00 +15°C° 0 mm 1 mps 742 mmHg 75%
02:00 +15°C° 0 mm 1 mps 742 mmHg 77%
03:00 +14°C° 0.1 mm 1 mps 742 mmHg 79%
04:00 +14°C° 0.1 mm 1 mps 741 mmHg 82%
05:00 +14°C° 0.1 mm 1 mps 741 mmHg 84%
06:00 +14°C° 0.4 mm 1 mps 741 mmHg 87%
07:00 +14°C° 0.4 mm 1 mps 741 mmHg 89%
08:00 +14°C° 0 mm 1 mps 741 mmHg 91%
09:00 +14°C° 2.1 mm 2 mps 741 mmHg 93%
10:00 +14°C° 2.1 mm 2 mps 741 mmHg 95%
11:00 +13°C° 2.1 mm 3 mps 741 mmHg 97%
12:00 +13°C° 1.5 mm 3 mps 740 mmHg 97%
13:00 +13°C° 1.5 mm 3 mps 740 mmHg 98%
14:00 +13°C° 0 mm 3 mps 740 mmHg 98%
15:00 +15°C° 0.3 mm 2 mps 740 mmHg 97%
16:00 +15°C° 0.3 mm 2 mps 740 mmHg 96%
17:00 +16°C° 0.3 mm 1 mps 739 mmHg 96%
18:00 +15°C° 0.1 mm 1 mps 739 mmHg 96%
19:00 +15°C° 0.1 mm 1 mps 739 mmHg 97%
20:00 +13°C° 0.1 mm 0 mps 739 mmHg 97%
21:00 +13°C° 0 mm 0 mps 739 mmHg 97%
22:00 +12°C° 0 mm 0 mps 739 mmHg 97%
23:00 +12°C° 0 mm 0 mps 739 mmHg 98%

Tomorrow, 6 August, Friday

Time Temperature Precipitation Wind Pressure Humidity
00:00 +12°C° 0 mm 0 mps 739 mmHg 97%
01:00 +11°C° 0 mm 0 mps 739 mmHg 97%
02:00 +11°C° 0 mm 0 mps 739 mmHg 97%
03:00 +11°C° 0 mm 0 mps 739 mmHg 97%
04:00 +12°C° 0 mm 1 mps 739 mmHg 98%
05:00 +12°C° 0 mm 1 mps 738 mmHg 98%
06:00 +14°C° 0 mm 2 mps 738 mmHg 95%
07:00 +15°C° 0 mm 2 mps 738 mmHg 92%
08:00 +17°C° 0 mm 2 mps 738 mmHg 89%
09:00 +18°C° 0 mm 2 mps 738 mmHg 83%
10:00 +19°C° 0 mm 3 mps 738 mmHg 78%
11:00 +20°C° 0 mm 3 mps 738 mmHg 73%
12:00 +19°C° 0.1 mm 3 mps 737 mmHg 78%
13:00 +19°C° 0.1 mm 3 mps 737 mmHg 82%
14:00 +19°C° 0.1 mm 3 mps 736 mmHg 87%
15:00 +18°C° 1.2 mm 3 mps 736 mmHg 90%
16:00 +18°C° 1.2 mm 3 mps 736 mmHg 94%
17:00 +18°C° 1.2 mm 3 mps 735 mmHg 97%
18:00 +18°C° 1.5 mm 3 mps 735 mmHg 97%
19:00 +17°C° 1.5 mm 3 mps 735 mmHg 98%
20:00 +17°C° 1.5 mm 3 mps 735 mmHg 98%
21:00 +17°C° 0.2 mm 3 mps 735 mmHg 98%
22:00 +17°C° 0.2 mm 3 mps 735 mmHg 98%
23:00 +18°C° 0.2 mm 3 mps 735 mmHg 98%

Day after tomorrow, 7 August, Saturday

Time Temperature Precipitation Wind Pressure Humidity
00:00 +18°C° 0.1 mm 4 mps 734 mmHg 98%
01:00 +18°C° 0.1 mm 4 mps 734 mmHg 97%
02:00 +18°C° 0.1 mm 4 mps 734 mmHg 97%
03:00 +18°C° 0.2 mm 4 mps 734 mmHg 97%
04:00 +17°C° 0.2 mm 4 mps 734 mmHg 97%
05:00 +17°C° 0.2 mm 4 mps 734 mmHg 97%
06:00 +17°C° 1.3 mm 4 mps 734 mmHg 98%
07:00 +17°C° 1.3 mm 3 mps 734 mmHg 98%
08:00 +17°C° 1.3 mm 3 mps 734 mmHg 98%
09:00 +17°C° 0.5 mm 3 mps 734 mmHg 98%
10:00 +18°C° 0.5 mm 3 mps 734 mmHg 97%
11:00 +18°C° 0.5 mm 3 mps 734 mmHg 97%
12:00 +19°C° 0.1 mm 3 mps 734 mmHg 91%
13:00 +20°C° 0.1 mm 3 mps 734 mmHg 85%
14:00 +21°C° 0.1 mm 4 mps 735 mmHg 79%
15:00 +21°C° 0.1 mm 4 mps 735 mmHg 76%
16:00 +20°C° 0.1 mm 4 mps 735 mmHg 72%
17:00 +20°C° 0.1 mm 4 mps 735 mmHg 69%
18:00 +18°C° 0 mm 3 mps 735 mmHg 74%
19:00 +17°C° 0 mm 3 mps 736 mmHg 79%
20:00 +15°C° 0 mm 2 mps 736 mmHg 84%
21:00 +15°C° 0 mm 2 mps 736 mmHg 85%
22:00 +15°C° 0 mm 2 mps 736 mmHg 86%
23:00 +15°C° 0 mm 2 mps 737 mmHg 87%

8 August, Sunday

Time Temperature Precipitation Wind Pressure Humidity
00:00 +15°C° 0 mm 2 mps 737 mmHg 87%
01:00 +15°C° 0 mm 2 mps 737 mmHg 88%
02:00 +15°C° 0 mm 2 mps 737 mmHg 88%
03:00 +15°C° 0 mm 2 mps 737 mmHg 89%
04:00 +15°C° 0 mm 2 mps 738 mmHg 90%
05:00 +15°C° 0 mm 2 mps 738 mmHg 91%
06:00 +15°C° 0 mm 2 mps 738 mmHg 92%
07:00 +16°C° 0 mm 2 mps 739 mmHg 92%
08:00 +16°C° 0 mm 2 mps 739 mmHg 93%
09:00 +18°C° 0 mm 2 mps 739 mmHg 82%
10:00 +20°C° 0 mm 3 mps 740 mmHg 72%
11:00 +21°C° 0 mm 3 mps 740 mmHg 62%
12:00 +23°C° 0 mm 2 mps 740 mmHg 61%
13:00 +23°C° 0 mm 2 mps 741 mmHg 59%
14:00 +23°C° 0 mm 2 mps 741 mmHg 58%
15:00 +23°C° 0 mm 2 mps 741 mmHg 61%
16:00 +23°C° 0 mm 2 mps 741 mmHg 64%
17:00 +23°C° 0 mm 2 mps 741 mmHg 67%
18:00 +20°C° 0 mm 2 mps 742 mmHg 74%
19:00 +19°C° 0 mm 2 mps 742 mmHg 80%
20:00 +18°C° 0 mm 2 mps 742 mmHg 87%
21:00 +17°C° 0 mm 2 mps 742 mmHg 89%
22:00 +16°C° 0 mm 2 mps 742 mmHg 92%
23:00 +16°C° 0 mm 2 mps 742 mmHg 95%

9 August, Monday

Time Temperature Precipitation Wind Pressure Humidity
00:00 +16°C° 0 mm 2 mps 742 mmHg 94%
01:00 +16°C° 0 mm 2 mps 742 mmHg 92%
02:00 +16°C° 0 mm 2 mps 742 mmHg 90%
03:00 +16°C° 0 mm 2 mps 742 mmHg 88%
04:00 +16°C° 0 mm 3 mps 742 mmHg 86%
05:00 +16°C° 0 mm 3 mps 742 mmHg 84%
06:00 +18°C° 0 mm 3 mps 742 mmHg 79%
07:00 +19°C° 0 mm 3 mps 742 mmHg 73%
08:00 +21°C° 0 mm 3 mps 743 mmHg 68%
09:00 +22°C° 0 mm 4 mps 743 mmHg 63%
10:00 +25°C° 0 mm 4 mps 743 mmHg 59%
11:00 +26°C° 0 mm 4 mps 743 mmHg 55%
12:00 +27°C° 0 mm 4 mps 743 mmHg 56%
13:00 +27°C° 0 mm 3 mps 743 mmHg 57%
14:00 +27°C° 0 mm 3 mps 743 mmHg 58%
15:00 +26°C° 0.4 mm 3 mps 743 mmHg 65%
16:00 +25°C° 0.4 mm 2 mps 743 mmHg 73%
17:00 +24°C° 0.4 mm 1 mps 743 mmHg 81%
18:00 +23°C° 0.9 mm 2 mps 743 mmHg 86%
19:00 +20°C° 0.9 mm 2 mps 743 mmHg 90%
20:00 +19°C° 0.9 mm 2 mps 743 mmHg 95%
21:00 +18°C° 0.1 mm 2 mps 743 mmHg 96%
22:00 +17°C° 0.1 mm 2 mps 744 mmHg 97%
23:00 +17°C° 0.1 mm 2 mps 744 mmHg 98%

10 August, Tuesday

Time Temperature Precipitation Wind Pressure Humidity
00:00 +16°C° 0 mm 1 mps 744 mmHg 98%
01:00 +16°C° 0 mm 1 mps 744 mmHg 98%
02:00 +15°C° 0 mm 1 mps 744 mmHg 98%
03:00 +15°C° 0 mm 1 mps 744 mmHg 98%
04:00 +15°C° 0 mm 1 mps 744 mmHg 97%
05:00 +15°C° 0 mm 1 mps 744 mmHg 97%
06:00 +16°C° 0 mm 1 mps 744 mmHg 94%
07:00 +18°C° 0 mm 1 mps 744 mmHg 90%
08:00 +19°C° 0 mm 1 mps 744 mmHg 86%
09:00 +21°C° 0 mm 1 mps 744 mmHg 78%
10:00 +23°C° 0 mm 1 mps 744 mmHg 69%
11:00 +24°C° 0 mm 1 mps 744 mmHg 61%
12:00 +25°C° 0 mm 1 mps 744 mmHg 60%
13:00 +25°C° 0 mm 1 mps 744 mmHg 59%
14:00 +25°C° 0 mm 1 mps 743 mmHg 58%
15:00 +25°C° 0 mm 1 mps 743 mmHg 61%
16:00 +24°C° 0 mm 1 mps 743 mmHg 65%
17:00 +24°C° 0 mm 1 mps 743 mmHg 69%
18:00 +22°C° 0.3 mm 1 mps 743 mmHg 75%
19:00 +21°C° 0.3 mm 1 mps 743 mmHg 81%
20:00 +19°C° 0.3 mm 2 mps 743 mmHg 86%
21:00 +18°C° 0 mm 2 mps 742 mmHg 86%
22:00 +18°C° 0 mm 2 mps 742 mmHg 86%
23:00 +18°C° 0 mm 2 mps 742 mmHg 86%
Show more

We Need Your Consent

Meteoprog and our Service Providers may store and access personal data such as cookies, device identifiers or other similar technologies on your device and process such data to personalise content and ads, as well as provide social media features and to analyse the traffic.

  • Store and/or access information on your device

    Cookies, device identifiers or other information can be stored or accessed on your device for the purposes indicated above.

  • Personalised ads and content, ad and content measurement, audience insights, and products development

    Ads and content can be personalised based on a profile. More data can be added to better personalise ads and content. Ad and content performance can be measured. Insights about the audience who saw the ads and content can be derived. Such data can be used to develop or improve user’s experience, systems and software.

By clicking ‘I Agree’ you will allow the use of indicated cookies, device identifiers, web beacons or other similar technologies. Your settings can be changed in the browser on your device.

For certain purposes, legitimate interests may be relied on, rather than consent. You can read more about this in our Privacy and Cookie Policy.